Location: El Abasto
(10.3790°N, 67.5897°W)
Time: 18:19:32
(UTC+00:00)

Resurs 1-3 - Pass Details

Date: 19 May 2024
Orbit: 621 x 623 km, 97.7° (Epoch: 12 June)

Event Time Altitude Azimuth Distance (km) Brightness Sun altitude
Exits shadow 23:40:21 19° 125° (SE) 1,466 4.9 -13.3°
Maximum altitude 23:42:37 31° 77° (ENE) 1,086 4.4 -13.8°
Drops below altitude 10° 23:46:26 10° 15° (NNE) 1,986 6.3 -14.6°
Sets 23:48:48 0° 5° (N) 2,891 7.3 -15.2°
